TimeMST,TemperatureF,Dew PointF,Humidity,Sea Level PressureIn,VisibilityMPH,Wind Direction,Wind SpeedMPH,Gust SpeedMPH,PrecipitationIn,Events,Conditions,WindDirDegrees,DateUTC
12:54 AM,39.0,14.0,36,29.95,10.0,SSW,10.4,-,N/A,,Partly Cloudy,200,2012-11-25 07:54:00
1:54 AM,37.9,15.1,39,29.91,10.0,South,9.2,-,N/A,,Clear,190,2012-11-25 08:54:00
2:54 AM,39.0,14.0,36,29.90,10.0,SW,13.8,-,N/A,,Clear,230,2012-11-25 09:54:00
3:54 AM,34.0,14.0,44,29.90,10.0,SSW,9.2,-,N/A,,Clear,200,2012-11-25 10:54:00
4:54 AM,33.1,12.9,43,29.91,10.0,South,10.4,-,N/A,,Clear,190,2012-11-25 11:54:00
5:54 AM,33.1,12.9,43,29.92,10.0,SW,8.1,-,N/A,,Clear,220,2012-11-25 12:54:00
6:54 AM,32.0,12.9,45,29.94,10.0,SW,8.1,-,N/A,,Clear,220,2012-11-25 13:54:00
7:54 AM,33.1,12.9,43,29.95,10.0,SW,11.5,-,N/A,,Partly Cloudy,220,2012-11-25 14:54:00
8:54 AM,37.9,14.0,38,29.92,10.0,WSW,16.1,-,N/A,,Scattered Clouds,240,2012-11-25 15:54:00
9:54 AM,39.9,15.1,36,29.92,10.0,WSW,17.3,23.0,N/A,,Overcast,250,2012-11-25 16:54:00
10:54 AM,42.1,15.1,34,29.92,10.0,West,21.9,-,N/A,,Overcast,260,2012-11-25 17:54:00
11:54 AM,43.0,21.0,42,29.91,10.0,West,29.9,36.8,N/A,,Overcast,270,2012-11-25 18:54:00
12:54 PM,41.0,25.0,53,29.92,10.0,West,19.6,32.2,0.00,Rain,Light Rain,270,2012-11-25 19:54:00
1:54 PM,42.1,25.0,51,29.91,10.0,West,25.3,35.7,0.00,,Overcast,260,2012-11-25 20:54:00
2:54 PM,41.0,26.1,55,29.88,10.0,West,29.9,40.3,N/A,,Partly Cloudy,270,2012-11-25 21:54:00
3:54 PM,41.0,26.1,55,29.91,10.0,West,24.2,35.7,N/A,,Clear,270,2012-11-25 22:54:00
4:54 PM,37.9,25.0,60,29.96,10.0,Calm,Calm,-,N/A,,Clear,0,2012-11-25 23:54:00
5:54 PM,37.0,24.1,59,29.99,10.0,Variable,4.6,-,N/A,,Clear,0,2012-11-26 00:54:00
6:54 PM,36.0,23.0,59,30.02,10.0,SW,5.8,-,N/A,,Clear,230,2012-11-26 01:54:00
7:54 PM,33.1,23.0,66,30.03,10.0,South,4.6,-,N/A,,Clear,180,2012-11-26 02:54:00
8:54 PM,33.1,21.9,64,30.02,10.0,WSW,8.1,-,N/A,,Clear,250,2012-11-26 03:54:00
9:54 PM,33.1,21.0,61,30.04,10.0,West,13.8,-,N/A,,Clear,270,2012-11-26 04:54:00
10:54 PM,32.0,21.0,64,30.05,10.0,West,8.1,-,N/A,,Clear,260,2012-11-26 05:54:00
11:54 PM,30.0,19.9,66,30.08,10.0,WNW,8.1,-,N/A,,Clear,300,2012-11-26 06:54:00